Regional Weather Roundup
Issued by NWS

Home | Current Version | Previous Version | Text Only | Print | Product List | Glossary On
Versions: 1 2 3 4 5 6 7 8 9 10 11 12 13 14 15 16 17 18 19 20 21 22 23 24 25 26 27 28 29 30 31 32 33 34 35 36 37 38 39 40 41 42 43 44 45 46 47 48 49 50
649
ASUS43 KMKX 230921
RWRWI

WISCONSIN REGIONAL WEATHER ROUNDUP
NATIONAL WEATHER SERVICE MILWAUKEE/SULLIVAN WI
400 AM CDT WED AUG 23 2017

NOTE: "FAIR" INDICATES FEW OR NO CLOUDS BELOW 12,000 FEET WITH NO
SIGNIFICANT WEATHER AND/OR OBSTRUCTIONS TO VISIBILITY.

WIZ001-002-006>008-014>016-023>028-231000-
NORTHWEST WISCONSIN

CITY           SKY/WX    TMP DP  RH WIND       PRES   REMARKS
SUPERIOR ARPT    N/A     52  50  93 NW5       30.03R
ASHLAND        CLEAR     51  50  96 SW7       30.01R
HAYWARD        CLEAR     49  46  90 CALM      30.04R
SIREN          CLEAR     51  49  93 CALM      30.05S
CUMBERLAND     CLEAR     52  46  82 NW6       30.05S
RICE LAKE      CLEAR     52  49  90 CALM      30.06R
CHETEK         CLEAR     52  50  92 CALM      30.05R
LADYSMITH      CLEAR     53  51  90 NW5       30.04S
EAU CLAIRE     CLEAR     53  49  86 CALM      30.04R
MENOMONIE      CLEAR     55  50  83 W5        30.05S
NEW RICHMOND   CLEAR     52  47  85 CALM      30.07S
OSCEOLA        CLEAR     49  49 100 CALM      30.10R
$$

WIZ003>005-009-010-017-018-231000-
NORTH CENTRAL WISCONSIN

CITY           SKY/WX    TMP DP  RH WIND       PRES   REMARKS
MANITOWISH WTR CLOUDY    53  53 100 W5        29.99S
ARBOR VITAE    CLOUDY    57  55  93 NW6       29.99S
WOODRUFF       CLOUDY    57  55  93 NW6       29.99S
RHINELANDER    PTCLDY    50  50 100 W5        30.00R
EAGLE RIVER    PTCLDY    52  51  99 W3        29.98R
LAND O LAKES   PTCLDY    54  52  94 CALM      29.99R
PHILLIPS       CLEAR     50  50 100 CALM      30.01R
TOMAHAWK         N/A     47  46  95 CALM      30.01S
MEDFORD        CLEAR     50  48  93 W6        30.02R
MERRILL        CLEAR     52  52 100 CALM      30.01R
$$

WIZ029-030-035-036-043>047-231000-
CENTRAL WISCONSIN

CITY           SKY/WX    TMP DP  RH WIND       PRES   REMARKS
WAUSAU         CLEAR     54  50  86 NW6       29.99R
MOSINEE        CLEAR     52  50  93 W7        30.01S
MARSHFIELD     CLEAR     52  47  83 NW6       30.01S
STEVENS POINT  CLEAR     53  49  88 W3        30.01S
WAUPACA        CLEAR     57  50  77 W6        29.99S
WAUTOMA        CLEAR     53  49  86 W7        30.01S
WISC RAPIDS    CLEAR     53  49  86 NW8       30.02S
CAMP DOUGLAS   CLEAR     49  47  92 W7        30.03R
$$

WIZ011>013-019>022-031-037>040-048>050-231000-
NORTHEAST WISCONSIN

CITY           SKY/WX    TMP DP  RH WIND       PRES   REMARKS
ANTIGO         PTCLDY    50  50 100 W7        29.99S
SHAWANO        CLEAR     56  51  83 W6        29.97R
OCONTO         CLEAR     54  51  90 W7        29.94S
STURGEON BAY   PTCLDY    59  54  83 NW10      29.94S
GREEN BAY      CLEAR     54  52  93 W8        29.96S
MANITOWOC      CLEAR     59  50  72 W8        29.96R
APPLETON       CLEAR     52  46  82 W10       29.96F
CLINTONVILLE   CLEAR     54  48  82 NW7       29.98S
OSHKOSH        CLEAR     57  49  74 W7        29.98R
$$

WIZ032>034-041-042-053>061-231000-
SOUTHWEST WISCONSIN

CITY           SKY/WX    TMP DP  RH WIND       PRES   REMARKS
LA CROSSE      CLEAR     57  51  80 CALM      30.05R
SPARTA         CLEAR     46  46  98 CALM      30.05S
VIROQUA        CLEAR     53  51  93 W3        30.06R
BOSCOBEL       PTCLDY    54  50  86 SW3       30.06S
PRAIRIE DU CHI CLEAR     55  49  79 W5        30.06F
PLATTEVILLE    CLEAR     52  52 100 W5        30.06F
$$

WIZ056-057-062-063-064-067-068-231000-
SOUTH CENTRAL WISCONSIN

CITY           SKY/WX    TMP DP  RH WIND       PRES   REMARKS
REEDSBURG      CLEAR     52  52 100 CALM      30.04R
BARABOO/DELLS  CLEAR     55  49  78 W6        30.03S
LONE ROCK      CLEAR     55  53  93 W7        30.04S
MINERAL POINT  CLEAR     54  52  94 W5        30.06S
MADISON        CLEAR     57  51  80 VRB6      30.02S
MIDDLETON      CLEAR     56  52  86 W7        30.03S
WATERTOWN      CLEAR     55  53  94 W6        30.01S
MONROE         CLEAR     54  50  87 W12       30.05S
JANESVILLE     CLEAR     55  54  94 CALM      30.02F
$$

WIZ051-052-058>065-066-070>072-231000-
SOUTHEAST WISCONSIN

CITY           SKY/WX    TMP DP  RH WIND       PRES   REMARKS
MILWAUKEE      CLEAR     62  51  67 W7        29.99S
WAUKESHA       CLEAR     55  48  76 W8        30.01S
MILWAUKEE/TIMM PTCLDY    57  46  67 W7        30.00S
RACINE         CLEAR     58  52  80 W7        30.01S
KENOSHA        CLEAR     54  50  86 W7        30.01S
FOND DU LAC    CLEAR     58  48  69 W12       29.99S
SHEBOYGAN      CLEAR     57  52  83 W6        29.97R
WEST BEND      CLEAR     57  48  72 W9        29.99S
JUNEAU         CLEAR     51  48  92 SW3       30.02R
$$

LSZ147-162-231000-
LAKE SUPERIOR

STATION/POSITION TIME  TEMP    WIND        PRES    WAVE
                       AIR SEA DIR/SP/G            HT/PER
                 (UTC) (F)     (DEG/KT/KT) (MB)    (FT/S)
W MID LAKE BUOY  0850   59 60  350/ 12/ 12 1014.3R   2/ 4
DEVILS ISLAND    0900   60     330/ 11/ 13 1015.6R
SAXON HARBOR     0830   61     280/  6/ 15 1014.9S
$$

LMZ867-665-643>646-231000-
LAKE MICHIGAN

STATION/POSITION TIME  TEMP    WIND        PRES    WAVE
                       AIR SEA DIR/SP/G            HT/PER
                 (UTC) (F)     (DEG/KT/KT) (MB)    (FT/S)
S GREEN BAY BUOY 0900   62 70  290/ 16/ 19 1013.6
N MID LAKE BUOY  0850   62 66  310/ 16/ 19 1012.4R   3/ 4
NORTHPORT PIER   0840   61     290/  9/ 14 1012.5R
KEWAUNEE LAKESHO 0854   58     300/  3/  6 1013.1R
SHEBOYGAN LAKESH 0900   60     280/  9/ 10 1014.3R
PORT WASHINGTON  0830   62     290/  4/  8 1015.9R
ATWATER BUOY     0809   64 67  250/ 12/ 16 1015.3R
MILWAUKEE LAKESH 0900   62     270/  9/ 11   N/A
S MID LAKE BUOY  0850   68 71  320/ 14/ 16 1014.8R   4/ 4
KENOSHA   LAKESH 0900   61     270/ 10/ 14 1015.6
$$

TC  - TEMPERATURE IN CELSIUS
VSB - VISIBILITY IN STATUTE MILES
WCI - WIND CHILL INDEX
HX  - HEAT INDEX





USA.gov is the U.S. government's official web portal to all federal, state and local government web resources and services.